Location: Newark
(30.0333°N, 31.2167°E)
Time: 15:35:33
(UTC+00:00)

Tiros 1 despin weight - Pass Details

Date: 25 January 2020
Orbit: 594 x 642 km, 48.2° (Epoch: 24 February)

Event Time Altitude Azimuth Distance (km) Brightness Sun altitude
Rises 09:40:19 0° 268° (W) 2,850 ? 40.5°
Reaches altitude 10° 09:43:10 10° 287° (WNW) 1,958 ? 40.6°
Maximum altitude 09:46:25 19° 333° (NNW) 1,460 ? 40.7°
Drops below altitude 10° 09:49:42 10° 19° (NNE) 1,984 ? 40.7°
Sets 09:52:37 0° 38° (NE) 2,902 ? 40.8°
